contact:dominique.lefevre@mio.osupytheas.fr, maurice.libes@osupytheas.fr, didier.mallarino@osupytheas.fr
Project:EMSO http://www.emso-fr.org/EMSO-France
Depth: 2436.0 m
Title:EMSO Ligure Ouest : Data MII capteur AQUADOPP
Date,Latitude,Longitude,X_East,Y_North,Z_Up,Amplitude_X,Amplitude_Y,Amplitude_Z,Batterie,SoundSpeed,Heading,Pitch,Roll,Pressure,TIS,Speed,Direction
, degrees North, degrees East, m.s-1, m.s-1,m.s-1, 1, 1, 1, Volt, m.s-1, degree, degree, degree, dbar, degree_C, m.s-1, degree
2020-05-17T00:04:02,42.805,6.029,0.008,0.005,-0.055,102.0,104.0,100.0,13.4,1505.3,323.8,-0.7,1.8,2470.409,13.31,0.009,58.0
2020-05-17T00:10:02,42.805,6.029,0.018,0.003,-0.019,102.0,104.0,102.0,13.4,1505.2,328.5,-0.7,1.8,2470.422,13.3,0.018,80.5
2020-05-17T00:13:03,42.805,6.029,0.018,-0.006,-0.033,102.0,104.0,101.0,13.4,1505.3,326.7,-0.8,1.8,2470.401,13.31,0.018,108.4
2020-05-17T00:16:03,42.805,6.029,-0.02,-0.012,-0.072,104.0,104.0,100.0,13.4,1505.3,328.3,-0.7,1.8,2470.408,13.32,0.023,239.0
2020-05-17T00:19:03,42.805,6.029,-0.005,0.005,0.007,103.0,107.0,100.0,13.3,1505.3,326.1,-0.7,1.8,2470.426,13.32,0.007,315.0
2020-05-17T00:22:02,42.805,6.029,0.01,-0.009,-0.07,100.0,105.0,100.0,13.4,1505.3,324.2,-0.7,1.8,2470.368,13.33,0.013,132.0
2020-05-17T00:25:03,42.805,6.029,-0.001,-0.002,-0.056,102.0,103.0,100.0,13.4,1505.3,327.4,-0.7,1.8,2470.358,13.33,0.002,206.6
2020-05-17T00:28:03,42.805,6.029,0.008,0.011,-0.021,102.0,105.0,99.0,13.4,1505.3,324.5,-0.7,1.8,2470.416,13.33,0.013,36.0
2020-05-17T00:31:03,42.805,6.029,0.008,0.002,-0.056,101.0,106.0,101.0,13.4,1505.3,324.3,-0.7,1.9,2470.392,13.33,0.008,76.0
2020-05-17T00:34:03,42.805,6.029,0.017,-0.018,-0.033,103.0,105.0,100.0,13.4,1505.3,325.1,-0.7,1.8,2470.375,13.33,0.024,136.6
2020-05-17T00:37:02,42.805,6.029,0.009,-0.006,-0.046,102.0,104.0,99.0,13.4,1505.3,327.5,-0.8,1.9,2470.355,13.33,0.01,123.7
2020-05-17T00:40:03,42.805,6.029,-0.032,0.007,-0.06,101.0,105.0,100.0,13.4,1505.3,324.7,-0.7,1.8,2470.372,13.33,0.032,282.3
2020-05-17T00:43:03,42.805,6.029,-0.027,0.003,-0.068,101.0,105.0,100.0,13.4,1505.3,323.1,-0.7,1.9,2470.387,13.33,0.027,276.3
2020-05-17T00:46:03,42.805,6.029,-0.001,0.007,-0.042,102.0,105.0,100.0,13.4,1505.3,325.8,-0.7,1.9,2470.362,13.33,0.007,351.9
2020-05-17T00:49:03,42.805,6.029,-0.009,0.016,-0.046,98.0,105.0,101.0,13.4,1505.3,323.7,-0.7,1.8,2470.435,13.33,0.018,330.6
2020-05-17T00:52:03,42.805,6.029,-0.004,0.012,-0.038,101.0,104.0,99.0,13.4,1505.3,324.9,-0.7,1.9,2470.398,13.33,0.012,341.6
2020-05-17T00:55:03,42.805,6.029,-0.019,0.008,-0.05,102.0,105.0,98.0,13.4,1505.3,325.2,-0.8,1.8,2470.377,13.33,0.02,292.8
2020-05-17T00:58:03,42.805,6.029,0.023,-0.001,-0.013,101.0,105.0,101.0,13.4,1505.3,324.7,-0.7,1.8,2470.399,13.33,0.023,92.5
2020-05-17T01:04:03,42.805,6.029,0.012,0.01,-0.05,104.0,106.0,101.0,13.4,1505.3,325.2,-0.7,1.9,2470.424,13.31,0.015,50.2
2020-05-17T01:07:03,42.805,6.029,0.009,0.011,-0.068,101.0,105.0,99.0,13.4,1505.3,323.0,-0.7,1.9,2470.37,13.32,0.014,39.3
2020-05-17T01:10:03,42.805,6.029,0.02,0.008,0.01,102.0,104.0,100.0,13.4,1505.3,325.9,-0.7,1.8,2470.422,13.32,0.021,68.2
2020-05-17T01:13:03,42.805,6.029,-0.037,0.013,-0.098,103.0,105.0,100.0,13.3,1505.3,327.0,-0.7,1.8,2470.385,13.33,0.039,289.4
2020-05-17T01:16:03,42.805,6.029,-0.025,0.004,-0.083,101.0,106.0,100.0,13.4,1505.3,326.0,-0.7,1.8,2470.451,13.33,0.025,279.1
2020-05-17T01:19:03,42.805,6.029,-0.043,0.013,-0.053,103.0,104.0,102.0,13.4,1505.3,325.2,-0.7,1.8,2470.351,13.33,0.044,286.8
2020-05-17T01:22:02,42.805,6.029,-0.015,0.005,-0.065,103.0,107.0,99.0,13.4,1505.3,324.8,-0.7,1.8,2470.399,13.33,0.015,288.4
2020-05-17T01:25:03,42.805,6.029,0.004,-0.005,-0.066,102.0,105.0,102.0,13.4,1505.3,327.2,-0.7,1.8,2470.43,13.33,0.006,141.3
2020-05-17T01:28:03,42.805,6.029,0.018,0.016,0.001,102.0,105.0,101.0,13.4,1505.3,326.4,-0.8,1.9,2470.398,13.33,0.024,48.4
2020-05-17T01:31:03,42.805,6.029,0.035,-0.006,-0.038,102.0,105.0,100.0,13.4,1505.3,326.9,-0.7,1.8,2470.374,13.33,0.035,99.7
2020-05-17T01:34:02,42.805,6.029,0.031,0.006,-0.035,102.0,105.0,101.0,13.4,1505.3,327.0,-0.7,1.8,2470.396,13.33,0.031,79.0
2020-05-17T01:37:03,42.805,6.029,0.018,0.0,-0.033,102.0,107.0,101.0,13.3,1505.3,328.4,-0.7,1.8,2470.364,13.33,0.018,90.0
2020-05-17T01:40:03,42.805,6.029,0.021,0.014,-0.047,102.0,105.0,100.0,13.4,1505.3,327.1,-0.7,1.8,2470.398,13.33,0.025,56.3
2020-05-17T01:43:03,42.805,6.029,0.015,-0.012,-0.022,103.0,104.0,101.0,13.3,1505.3,328.2,-0.7,1.8,2470.405,13.33,0.019,128.7
2020-05-17T01:46:03,42.805,6.029,-0.012,0.0,-0.047,99.0,106.0,101.0,13.3,1505.3,323.3,-0.7,1.8,2470.416,13.33,0.012,270.0
2020-05-17T01:49:03,42.805,6.029,0.0,0.008,-0.043,103.0,106.0,99.0,13.4,1505.3,324.6,-0.7,1.8,2470.392,13.33,0.008,0.0
2020-05-17T01:52:02,42.805,6.029,0.008,-0.007,-0.037,103.0,107.0,100.0,13.4,1505.3,326.0,-0.7,1.8,2470.414,13.33,0.01,131.2
2020-05-17T01:55:03,42.805,6.029,0.036,-0.003,-0.002,102.0,107.0,100.0,13.4,1505.3,323.8,-0.7,1.8,2470.465,13.33,0.036,94.8
2020-05-17T01:58:03,42.805,6.029,-0.011,0.011,-0.046,104.0,106.0,101.0,13.4,1505.3,325.9,-0.7,1.8,2470.415,13.33,0.015,315.0
2020-05-17T02:04:02,42.805,6.029,-0.004,0.004,-0.026,102.0,106.0,101.0,13.3,1505.3,326.2,-0.7,1.8,2470.411,13.31,0.005,315.0
2020-05-17T02:07:03,42.805,6.029,0.009,0.016,-0.029,103.0,107.0,100.0,13.4,1505.3,326.3,-0.7,1.9,2470.439,13.32,0.018,29.4
2020-05-17T02:10:03,42.805,6.029,-0.001,-0.012,-0.041,102.0,106.0,100.0,13.4,1505.3,325.6,-0.7,1.8,2470.432,13.32,0.012,184.8
2020-05-17T02:13:03,42.805,6.029,-0.019,0.018,-0.052,104.0,107.0,100.0,13.3,1505.3,325.3,-0.7,1.9,2470.431,13.32,0.026,313.5
2020-05-17T02:16:03,42.805,6.029,0.013,-0.01,-0.036,103.0,107.0,100.0,13.4,1505.3,323.2,-0.7,1.8,2470.428,13.33,0.016,127.6
2020-05-17T02:22:02,42.805,6.029,-0.002,-0.012,-0.038,103.0,107.0,101.0,13.4,1505.3,325.8,-0.7,1.8,2470.453,13.31,0.012,189.5
2020-05-17T02:25:03,42.805,6.029,0.003,0.008,-0.031,103.0,107.0,101.0,13.4,1505.3,328.3,-0.7,1.8,2470.435,13.31,0.008,20.6
2020-05-17T02:28:03,42.805,6.029,0.0,-0.014,-0.034,103.0,107.0,101.0,13.3,1505.3,326.2,-0.7,1.8,2470.451,13.32,0.014,180.0
2020-05-17T02:31:03,42.805,6.029,0.021,0.017,-0.026,103.0,106.0,101.0,13.4,1505.3,323.9,-0.7,1.8,2470.448,13.32,0.027,51.0
2020-05-17T02:34:03,42.805,6.029,-0.027,0.012,-0.05,103.0,107.0,102.0,13.3,1505.3,326.4,-0.7,1.9,2470.445,13.33,0.029,294.0
2020-05-17T02:37:02,42.805,6.029,0.021,0.0,-0.008,102.0,107.0,101.0,13.4,1505.3,322.8,-0.7,1.8,2470.472,13.33,0.021,90.0
2020-05-17T02:40:03,42.805,6.029,0.019,-0.006,-0.018,104.0,107.0,100.0,13.3,1505.3,327.7,-0.7,1.8,2470.496,13.33,0.019,107.5
2020-05-17T02:43:03,42.805,6.029,0.02,0.012,-0.015,104.0,108.0,100.0,13.3,1505.3,325.0,-0.7,1.8,2470.447,13.33,0.023,59.0
2020-05-17T02:46:03,42.805,6.029,0.041,-0.002,-0.016,102.0,107.0,100.0,13.3,1505.3,325.9,-0.8,1.9,2470.443,13.33,0.041,92.8
2020-05-17T02:49:03,42.805,6.029,0.035,-0.004,0.025,103.0,106.0,101.0,13.3,1505.3,324.4,-0.7,1.9,2470.409,13.33,0.035,96.5
2020-05-17T02:52:03,42.805,6.029,-0.018,-0.001,-0.039,104.0,106.0,102.0,13.3,1505.3,326.5,-0.7,1.8,2470.448,13.33,0.018,266.8
2020-05-17T02:55:03,42.805,6.029,-0.024,-0.011,-0.042,105.0,107.0,101.0,13.4,1505.3,326.1,-0.7,1.8,2470.405,13.33,0.026,245.4
2020-05-17T02:58:03,42.805,6.029,-0.012,0.004,-0.062,102.0,107.0,102.0,13.4,1505.3,326.4,-0.8,1.8,2470.444,13.33,0.012,288.4
2020-05-17T03:04:02,42.805,6.029,0.007,0.016,-0.027,105.0,106.0,102.0,13.4,1505.3,325.8,-0.7,1.8,2470.419,13.31,0.017,23.6
2020-05-17T03:07:03,42.805,6.029,0.04,0.006,0.016,105.0,107.0,102.0,13.4,1505.3,324.5,-0.7,1.8,2470.474,13.32,0.04,81.5
2020-05-17T03:10:03,42.805,6.029,-0.028,-0.021,-0.079,103.0,106.0,101.0,13.4,1505.3,328.1,-0.7,1.8,2470.433,13.32,0.035,233.1
2020-05-17T03:13:03,42.805,6.029,0.004,0.002,-0.037,103.0,105.0,101.0,13.4,1505.3,326.6,-0.7,1.8,2470.416,13.32,0.004,63.4
2020-05-17T03:16:03,42.805,6.029,-0.004,-0.002,-0.014,103.0,103.0,99.0,13.4,1505.3,326.0,-0.7,1.8,2470.426,13.33,0.004,243.4
2020-05-17T03:19:03,42.805,6.029,-0.017,-0.015,-0.033,103.0,105.0,102.0,13.3,1505.3,323.8,-0.7,1.8,2470.466,13.33,0.022,228.6
2020-05-17T03:22:03,42.805,6.029,-0.029,0.021,-0.067,104.0,104.0,99.0,13.3,1505.3,326.0,-0.7,1.8,2470.43,13.33,0.035,305.9
2020-05-17T03:25:03,42.805,6.029,-0.006,0.0,-0.018,103.0,104.0,100.0,13.3,1505.3,326.9,-0.7,1.8,2470.409,13.33,0.006,270.0
2020-05-17T03:28:03,42.805,6.029,-0.005,0.0,-0.055,102.0,105.0,101.0,13.4,1505.3,326.4,-0.7,1.8,2470.453,13.33,0.005,270.0
2020-05-17T03:31:03,42.805,6.029,-0.032,-0.009,-0.051,103.0,105.0,101.0,13.4,1505.3,327.3,-0.7,1.8,2470.417,13.33,0.033,254.3
2020-05-17T03:34:03,42.805,6.029,-0.018,0.005,-0.074,104.0,106.0,101.0,13.4,1505.3,323.0,-0.8,1.8,2470.411,13.33,0.018,285.5
2020-05-17T03:37:03,42.805,6.029,-0.011,-0.008,-0.087,101.0,105.0,101.0,13.3,1505.3,324.6,-0.7,1.8,2470.428,13.33,0.013,234.0
2020-05-17T03:40:03,42.805,6.029,-0.005,0.007,-0.05,102.0,105.0,101.0,13.4,1505.3,326.9,-0.7,1.8,2470.464,13.33,0.008,324.5
2020-05-17T03:43:03,42.805,6.029,-0.024,-0.009,-0.032,103.0,105.0,101.0,13.4,1505.3,326.0,-0.7,1.9,2470.424,13.33,0.025,249.4
2020-05-17T03:46:03,42.805,6.029,0.018,-0.005,-0.034,101.0,105.0,100.0,13.4,1505.3,324.2,-0.7,1.8,2470.437,13.33,0.018,105.5
2020-05-17T03:49:03,42.805,6.029,0.002,0.009,-0.04,103.0,104.0,100.0,13.3,1505.3,325.5,-0.7,1.8,2470.452,13.33,0.009,12.5
2020-05-17T03:52:02,42.805,6.029,-0.031,-0.007,-0.073,103.0,104.0,100.0,13.4,1505.3,328.5,-0.7,1.8,2470.435,13.33,0.031,257.3
2020-05-17T03:55:03,42.805,6.029,0.0,-0.007,-0.035,103.0,103.0,100.0,13.4,1505.3,327.8,-0.7,1.9,2470.421,13.33,0.007,180.0
2020-05-17T03:58:03,42.805,6.029,0.007,0.012,-0.021,102.0,104.0,100.0,13.3,1505.3,326.4,-0.7,1.8,2470.428,13.33,0.013,30.3
2020-05-17T04:04:02,42.805,6.029,-0.004,0.004,-0.035,100.0,103.0,101.0,13.3,1505.3,324.9,-0.8,1.8,2470.438,13.31,0.005,315.0
2020-05-17T04:07:03,42.805,6.029,0.007,0.011,-0.033,102.0,104.0,101.0,13.3,1505.3,325.9,-0.7,1.8,2470.435,13.32,0.013,32.5
2020-05-17T04:10:03,42.805,6.029,0.005,0.001,-0.012,102.0,104.0,99.0,13.3,1505.3,327.3,-0.7,1.8,2470.436,13.32,0.005,78.7
2020-05-17T04:13:03,42.805,6.029,0.015,0.039,-0.019,102.0,104.0,99.0,13.4,1505.3,325.0,-0.7,1.8,2470.419,13.33,0.041,21.0
2020-05-17T04:16:03,42.805,6.029,0.01,0.007,-0.023,101.0,103.0,101.0,13.4,1505.3,324.5,-0.7,1.9,2470.427,13.33,0.012,55.0
2020-05-17T04:19:03,42.805,6.029,0.006,-0.001,-0.03,101.0,105.0,100.0,13.4,1505.3,326.1,-0.7,1.9,2470.43,13.33,0.006,99.5
2020-05-17T04:22:03,42.805,6.029,0.003,0.013,-0.06,101.0,104.0,100.0,13.4,1505.3,323.2,-0.7,1.8,2470.413,13.33,0.013,13.0
2020-05-17T04:25:03,42.805,6.029,-0.031,0.005,-0.059,101.0,102.0,100.0,13.3,1505.3,325.8,-0.7,1.8,2470.411,13.33,0.031,279.2
2020-05-17T04:28:03,42.805,6.029,0.005,0.001,-0.019,103.0,104.0,100.0,13.4,1505.3,328.4,-0.7,1.8,2470.38,13.33,0.005,78.7
2020-05-17T04:31:03,42.805,6.029,-0.008,-0.014,-0.017,104.0,103.0,101.0,13.4,1505.3,324.6,-0.7,1.9,2470.366,13.33,0.016,209.7
2020-05-17T04:34:03,42.805,6.029,0.008,0.001,-0.017,103.0,103.0,101.0,13.3,1505.3,325.3,-0.7,1.8,2470.395,13.33,0.008,82.9
2020-05-17T04:37:03,42.805,6.029,0.004,0.013,-0.015,101.0,102.0,100.0,13.4,1505.3,324.3,-0.7,1.8,2470.371,13.33,0.013,17.1
2020-05-17T04:40:03,42.805,6.029,-0.012,-0.003,-0.046,102.0,104.0,100.0,13.4,1505.3,323.4,-0.8,1.8,2470.375,13.33,0.012,256.0
2020-05-17T04:43:03,42.805,6.029,0.007,-0.006,-0.043,102.0,104.0,100.0,13.4,1505.3,327.1,-0.7,1.8,2470.41,13.33,0.009,130.6
2020-05-17T04:46:03,42.805,6.029,-0.016,-0.014,-0.091,101.0,103.0,102.0,13.3,1505.3,326.6,-0.7,1.8,2470.39,13.33,0.021,228.8
2020-05-17T04:49:03,42.805,6.029,-0.013,-0.002,-0.039,101.0,107.0,100.0,13.4,1505.3,327.0,-0.7,1.8,2470.387,13.33,0.013,261.3
2020-05-17T04:52:03,42.805,6.029,-0.034,-0.01,-0.078,101.0,106.0,100.0,13.4,1505.3,324.1,-0.7,1.8,2470.456,13.33,0.035,253.6
2020-05-17T04:55:03,42.805,6.029,0.002,-0.004,-0.038,104.0,104.0,101.0,13.4,1505.3,324.2,-0.7,1.8,2470.416,13.33,0.004,153.4
2020-05-17T04:58:03,42.805,6.029,-0.009,0.0,-0.048,103.0,105.0,100.0,13.4,1505.3,327.6,-0.7,1.8,2470.444,13.33,0.009,270.0
2020-05-17T05:04:03,42.805,6.029,-0.009,0.004,-0.057,102.0,104.0,101.0,13.4,1505.3,323.4,-0.7,1.8,2470.448,13.31,0.009,294.0
2020-05-17T05:07:03,42.805,6.029,0.014,0.0,0.006,102.0,104.0,101.0,13.4,1505.3,326.9,-0.7,1.8,2470.434,13.32,0.014,90.0
2020-05-17T05:10:03,42.805,6.029,-0.022,-0.006,-0.052,103.0,104.0,102.0,13.3,1505.3,325.5,-0.7,1.8,2470.44,13.32,0.022,254.7
2020-05-17T05:13:03,42.805,6.029,-0.016,-0.01,-0.056,103.0,105.0,101.0,13.4,1505.3,324.9,-0.7,1.9,2470.414,13.33,0.018,238.0
2020-05-17T05:16:03,42.805,6.029,-0.009,0.0,-0.036,103.0,104.0,100.0,13.3,1505.3,324.5,-0.7,1.8,2470.399,13.33,0.009,270.0
2020-05-17T05:19:03,42.805,6.029,-0.013,0.0,-0.064,104.0,105.0,100.0,13.4,1505.3,324.4,-0.7,1.8,2470.418,13.33,0.013,270.0
2020-05-17T05:22:03,42.805,6.029,0.005,0.002,-0.014,102.0,104.0,101.0,13.4,1505.4,324.5,-0.7,1.8,2470.413,13.34,0.005,68.2
2020-05-17T05:25:03,42.805,6.029,0.004,0.008,-0.052,102.0,106.0,101.0,13.4,1505.3,323.5,-0.7,1.8,2470.465,13.33,0.008,26.6
2020-05-17T05:28:03,42.805,6.029,0.021,0.002,0.005,103.0,104.0,101.0,13.3,1505.3,324.4,-0.7,1.8,2470.435,13.33,0.021,84.6
2020-05-17T05:31:03,42.805,6.029,0.06,-0.007,0.03,104.0,104.0,101.0,13.4,1505.3,326.8,-0.7,1.9,2470.392,13.33,0.06,96.7
2020-05-17T05:34:03,42.805,6.029,-0.006,0.011,-0.032,104.0,105.0,100.0,13.4,1505.3,325.8,-0.7,1.8,2470.401,13.33,0.012,331.4
2020-05-17T05:37:03,42.805,6.029,0.025,0.016,0.009,102.0,105.0,101.0,13.4,1505.3,325.1,-0.7,1.9,2470.427,13.33,0.029,57.4
2020-05-17T05:40:03,42.805,6.029,-0.009,0.007,-0.044,104.0,107.0,100.0,13.4,1505.3,324.0,-0.7,1.8,2470.4,13.33,0.011,307.9
2020-05-17T05:43:03,42.805,6.029,0.022,0.011,0.001,102.0,105.0,101.0,13.4,1505.4,326.4,-0.7,1.8,2470.43,13.34,0.024,63.4
2020-05-17T05:46:03,42.805,6.029,-0.02,0.034,-0.017,103.0,106.0,101.0,13.3,1505.4,326.3,-0.7,1.8,2470.377,13.34,0.039,329.5
2020-05-17T05:49:03,42.805,6.029,0.007,0.003,-0.012,103.0,106.0,101.0,13.3,1505.4,328.2,-0.7,1.8,2470.377,13.34,0.007,66.8
2020-05-17T05:52:03,42.805,6.029,0.01,0.004,-0.012,103.0,106.0,100.0,13.3,1505.4,325.6,-0.7,1.9,2470.393,13.34,0.01,68.2
2020-05-17T05:55:03,42.805,6.029,-0.022,0.004,-0.025,102.0,107.0,100.0,13.4,1505.4,323.2,-0.7,1.8,2470.375,13.34,0.022,280.3
2020-05-17T05:58:03,42.805,6.029,-0.005,0.002,-0.006,103.0,105.0,101.0,13.4,1505.4,323.4,-0.7,1.8,2470.349,13.34,0.005,291.8
2020-05-17T06:04:03,42.805,6.029,-0.002,-0.008,-0.04,103.0,106.0,101.0,13.4,1505.3,324.2,-0.7,1.8,2470.391,13.32,0.008,194.0
2020-05-17T06:07:03,42.805,6.029,-0.018,0.002,-0.049,101.0,107.0,100.0,13.3,1505.3,326.5,-0.7,1.8,2470.393,13.33,0.018,276.3
2020-05-17T06:10:03,42.805,6.029,-0.011,0.014,-0.033,103.0,104.0,101.0,13.4,1505.3,326.6,-0.7,1.8,2470.345,13.33,0.017,321.8
2020-05-17T06:13:03,42.805,6.029,0.001,0.004,-0.028,103.0,106.0,101.0,13.4,1505.3,328.3,-0.7,1.8,2470.393,13.33,0.004,14.0
2020-05-17T06:16:03,42.805,6.029,-0.018,-0.003,-0.054,103.0,106.0,101.0,13.4,1505.4,323.4,-0.7,1.8,2470.399,13.34,0.018,260.5
2020-05-17T06:19:03,42.805,6.029,-0.019,0.011,-0.051,107.0,107.0,99.0,13.4,1505.4,324.7,-0.7,1.8,2470.39,13.34,0.021,300.1
2020-05-17T06:22:03,42.805,6.029,-0.006,0.0,-0.031,103.0,107.0,101.0,13.3,1505.4,325.4,-0.7,1.8,2470.36,13.34,0.006,270.0
2020-05-17T06:28:02,42.805,6.029,0.004,0.0,-0.058,105.0,105.0,100.0,13.3,1505.3,328.1,-0.7,1.8,2470.431,13.32,0.004,90.0
2020-05-17T06:31:03,42.805,6.029,-0.017,0.016,-0.075,102.0,107.0,100.0,13.3,1505.3,323.8,-0.7,1.8,2470.369,13.33,0.023,313.3
2020-05-17T06:34:03,42.805,6.029,-0.043,0.006,-0.064,102.0,107.0,100.0,13.3,1505.3,324.7,-0.7,1.8,2470.418,13.33,0.043,277.9
2020-05-17T06:37:03,42.805,6.029,-0.017,0.007,-0.068,103.0,105.0,101.0,13.4,1505.3,324.6,-0.7,1.8,2470.362,13.33,0.018,292.4
2020-05-17T06:40:03,42.805,6.029,-0.029,0.008,-0.057,103.0,106.0,101.0,13.4,1505.3,327.1,-0.7,1.8,2470.388,13.33,0.03,285.4
2020-05-17T06:43:03,42.805,6.029,-0.062,0.011,-0.053,101.0,105.0,101.0,13.3,1505.3,323.1,-0.7,1.9,2470.412,13.33,0.062,280.1
2020-05-17T06:46:03,42.805,6.029,-0.051,0.023,-0.071,104.0,105.0,100.0,13.4,1505.4,327.3,-0.7,1.8,2470.408,13.34,0.055,294.3
2020-05-17T06:49:03,42.805,6.029,-0.032,-0.016,-0.088,101.0,105.0,100.0,13.4,1505.4,325.7,-0.7,1.8,2470.395,13.34,0.035,243.4
2020-05-17T06:52:03,42.805,6.029,0.004,-0.008,-0.052,102.0,107.0,100.0,13.4,1505.4,327.3,-0.7,1.8,2470.345,13.34,0.008,153.4
2020-05-17T06:55:03,42.805,6.029,0.019,0.027,-0.017,102.0,106.0,100.0,13.4,1505.4,324.9,-0.7,1.8,2470.326,13.34,0.033,35.1
2020-05-17T06:58:02,42.805,6.029,0.056,0.012,0.031,104.0,106.0,101.0,13.4,1505.4,323.4,-0.7,1.8,2470.34,13.34,0.057,77.9
2020-05-17T07:04:03,42.805,6.029,0.037,0.018,0.007,103.0,107.0,101.0,13.3,1505.3,326.2,-0.7,1.8,2470.393,13.32,0.041,64.1
2020-05-17T07:07:03,42.805,6.029,0.051,0.022,0.003,103.0,105.0,101.0,13.3,1505.3,324.7,-0.7,1.8,2470.353,13.33,0.055,66.7
2020-05-17T07:10:03,42.805,6.029,0.043,0.022,-0.002,100.0,105.0,100.0,13.4,1505.4,327.8,-0.7,1.8,2470.348,13.34,0.048,62.9
2020-05-17T07:13:03,42.805,6.029,0.034,0.022,-0.015,103.0,106.0,103.0,13.4,1505.4,324.2,-0.7,1.9,2470.365,13.34,0.04,57.1
2020-05-17T07:16:03,42.805,6.029,0.05,0.017,0.0,102.0,105.0,98.0,13.4,1505.4,324.9,-0.7,1.8,2470.384,13.34,0.052,71.2
2020-05-17T07:19:03,42.805,6.029,0.035,0.001,0.015,101.0,105.0,100.0,13.4,1505.4,327.9,-0.7,1.8,2470.386,13.34,0.035,88.4
2020-05-17T07:22:03,42.805,6.029,0.027,0.009,0.009,102.0,105.0,102.0,13.4,1505.4,323.4,-0.7,1.8,2470.32,13.34,0.028,71.6
2020-05-17T07:25:03,42.805,6.029,0.054,0.02,0.003,105.0,104.0,101.0,13.4,1505.4,324.5,-0.7,1.8,2470.359,13.35,0.057,69.7
2020-05-17T07:28:03,42.805,6.029,0.049,0.018,0.03,101.0,105.0,99.0,13.4,1505.4,325.1,-0.7,1.8,2470.339,13.35,0.052,69.8
2020-05-17T07:31:03,42.805,6.029,0.009,0.021,-0.04,102.0,105.0,100.0,13.4,1505.4,325.7,-0.7,1.8,2470.336,13.35,0.022,23.2
2020-05-17T07:34:03,42.805,6.029,0.009,0.024,-0.021,103.0,107.0,100.0,13.4,1505.4,323.3,-0.7,1.8,2470.298,13.35,0.025,20.6
2020-05-17T07:37:03,42.805,6.029,0.009,-0.009,-0.024,103.0,108.0,99.0,13.4,1505.4,324.2,-0.7,1.8,2470.3,13.35,0.012,135.0
2020-05-17T07:40:03,42.805,6.029,0.024,0.022,-0.006,103.0,105.0,99.0,13.4,1505.4,324.1,-0.7,1.8,2470.317,13.35,0.032,47.5
2020-05-17T07:43:03,42.805,6.029,0.029,0.013,-0.012,104.0,105.0,101.0,13.3,1505.4,328.6,-0.7,1.8,2470.313,13.35,0.031,65.9
2020-05-17T07:46:03,42.805,6.029,0.024,0.026,0.014,103.0,109.0,101.0,13.4,1505.4,324.4,-0.7,1.8,2470.332,13.36,0.035,42.7
2020-05-17T07:49:03,42.805,6.029,0.059,0.002,0.036,103.0,104.0,101.0,13.4,1505.4,326.5,-0.7,1.9,2470.336,13.36,0.059,88.1
2020-05-17T07:52:03,42.805,6.029,0.032,0.026,-0.009,103.0,105.0,99.0,13.4,1505.4,325.3,-0.7,1.8,2470.328,13.35,0.041,50.9
2020-05-17T07:55:03,42.805,6.029,0.054,0.008,0.033,102.0,104.0,100.0,13.4,1505.4,323.8,-0.7,1.9,2470.305,13.35,0.054,81.6
2020-05-17T07:58:03,42.805,6.029,0.03,-0.003,-0.017,101.0,105.0,101.0,13.4,1505.4,327.9,-0.7,1.9,2470.321,13.35,0.03,95.7
2020-05-17T08:04:03,42.805,6.029,0.042,0.013,0.01,100.0,104.0,101.0,13.4,1505.3,323.9,-0.8,1.8,2470.349,13.33,0.043,72.8
2020-05-17T08:07:03,42.805,6.029,0.065,0.014,0.036,102.0,104.0,99.0,13.4,1505.3,323.8,-0.7,1.8,2470.377,13.33,0.066,77.8
2020-05-17T08:10:03,42.805,6.029,0.024,0.017,-0.023,106.0,105.0,100.0,13.4,1505.4,324.5,-0.7,1.8,2470.32,13.34,0.029,54.7
2020-05-17T08:13:03,42.805,6.029,0.032,0.0,-0.015,105.0,104.0,100.0,13.4,1505.4,328.4,-0.7,1.8,2470.32,13.34,0.032,90.0
2020-05-17T08:16:03,42.805,6.029,0.03,0.006,-0.015,101.0,104.0,100.0,13.4,1505.4,326.8,-0.7,1.8,2470.315,13.34,0.03,78.7
2020-05-17T08:19:03,42.805,6.029,0.046,0.021,-0.002,102.0,103.0,99.0,13.4,1505.4,325.4,-0.7,1.8,2470.281,13.34,0.05,65.5
2020-05-17T08:22:03,42.805,6.029,0.066,0.024,-0.023,100.0,103.0,100.0,13.3,1505.4,324.5,-0.7,1.8,2470.307,13.34,0.07,70.0
2020-05-17T08:25:03,42.805,6.029,0.034,0.009,-0.011,103.0,105.0,99.0,13.4,1505.4,323.6,-0.7,1.9,2470.304,13.34,0.035,75.2
2020-05-17T08:28:03,42.805,6.029,0.019,0.039,0.013,104.0,105.0,99.0,13.4,1505.4,325.2,-0.7,1.8,2470.285,13.34,0.043,26.0
2020-05-17T08:31:03,42.805,6.029,0.06,0.005,0.003,102.0,104.0,101.0,13.3,1505.4,323.0,-0.7,1.8,2470.275,13.34,0.06,85.2
2020-05-17T08:34:03,42.805,6.029,0.071,0.011,0.005,99.0,104.0,99.0,13.4,1505.4,326.3,-0.7,1.8,2470.343,13.34,0.071,81.2
2020-05-17T08:37:02,42.805,6.029,0.03,0.025,-0.013,100.0,104.0,100.0,13.3,1505.4,326.3,-0.7,1.8,2470.328,13.34,0.039,50.2
2020-05-17T08:40:03,42.805,6.029,0.059,0.008,0.013,100.0,106.0,100.0,13.4,1505.4,325.6,-0.7,1.8,2470.291,13.34,0.059,82.3
2020-05-17T08:43:03,42.805,6.029,0.056,0.015,0.034,102.0,103.0,100.0,13.3,1505.4,324.3,-0.7,1.8,2470.279,13.34,0.057,75.0
2020-05-17T08:46:03,42.805,6.029,0.016,0.022,-0.019,102.0,103.0,100.0,13.4,1505.4,326.2,-0.7,1.9,2470.289,13.34,0.027,36.0
2020-05-17T08:49:03,42.805,6.029,0.03,0.024,-0.01,104.0,104.0,99.0,13.4,1505.4,324.3,-0.7,1.8,2470.291,13.34,0.038,51.3
2020-05-17T08:52:03,42.805,6.029,-0.005,0.033,-0.042,103.0,104.0,101.0,13.4,1505.4,325.0,-0.7,1.8,2470.267,13.34,0.033,351.4
2020-05-17T08:55:03,42.805,6.029,0.002,0.012,-0.03,103.0,103.0,102.0,13.3,1505.4,324.7,-0.7,1.8,2470.264,13.34,0.012,9.5
2020-05-17T08:58:02,42.805,6.029,-0.014,0.012,-0.069,101.0,104.0,99.0,13.4,1505.4,324.9,-0.7,1.8,2470.305,13.34,0.018,310.6
2020-05-17T09:04:03,42.805,6.029,0.025,0.013,-0.026,101.0,103.0,99.0,13.4,1505.3,324.5,-0.7,1.8,2470.298,13.32,0.028,62.5
2020-05-17T09:07:03,42.805,6.029,0.014,0.011,-0.042,102.0,103.0,100.0,13.4,1505.3,324.4,-0.7,1.9,2470.343,13.32,0.017,51.8
2020-05-17T09:10:03,42.805,6.029,0.034,0.006,0.008,101.0,104.0,102.0,13.4,1505.3,328.1,-0.7,1.8,2470.314,13.33,0.034,80.0
2020-05-17T09:13:03,42.805,6.029,0.021,0.012,-0.034,101.0,106.0,100.0,13.4,1505.3,323.0,-0.7,1.8,2470.308,13.33,0.024,60.3
2020-05-17T09:16:03,42.805,6.029,0.004,0.029,0.009,102.0,105.0,99.0,13.4,1505.3,325.7,-0.7,1.8,2470.305,13.33,0.029,7.8
2020-05-17T09:19:03,42.805,6.029,0.034,0.014,-0.013,101.0,106.0,100.0,13.3,1505.3,327.5,-0.7,1.8,2470.329,13.33,0.036,67.6
2020-05-17T09:22:02,42.805,6.029,0.004,0.018,-0.048,102.0,106.0,100.0,13.4,1505.3,323.0,-0.7,1.8,2470.305,13.33,0.018,12.5
2020-05-17T09:25:03,42.805,6.029,0.036,-0.001,-0.051,102.0,105.0,100.0,13.4,1505.3,325.1,-0.7,1.8,2470.249,13.33,0.036,91.6
2020-05-17T09:28:03,42.805,6.029,0.002,0.007,-0.031,102.0,104.0,99.0,13.4,1505.3,328.4,-0.7,1.8,2470.287,13.33,0.007,15.9
2020-05-17T09:31:03,42.805,6.029,0.004,0.006,-0.013,103.0,106.0,101.0,13.4,1505.3,323.7,-0.7,1.8,2470.293,13.33,0.007,33.7
2020-05-17T09:34:03,42.805,6.029,0.008,-0.005,-0.023,101.0,104.0,101.0,13.4,1505.3,326.4,-0.7,1.9,2470.249,13.33,0.009,122.0
2020-05-17T09:37:03,42.805,6.029,0.045,0.025,0.0,101.0,105.0,99.0,13.4,1505.3,325.2,-0.7,1.8,2470.263,13.33,0.051,60.9
2020-05-17T09:40:03,42.805,6.029,0.027,0.011,-0.016,102.0,106.0,100.0,13.3,1505.3,326.6,-0.7,1.8,2470.297,13.33,0.029,67.8
2020-05-17T09:43:03,42.805,6.029,0.017,0.0,-0.021,103.0,105.0,100.0,13.4,1505.3,323.8,-0.7,1.8,2470.238,13.33,0.017,90.0
2020-05-17T09:46:03,42.805,6.029,-0.002,0.002,-0.062,102.0,105.0,100.0,13.4,1505.3,326.8,-0.7,1.8,2470.285,13.33,0.002,315.0
2020-05-17T09:49:03,42.805,6.029,-0.003,0.004,-0.062,102.0,104.0,100.0,13.3,1505.3,328.3,-0.8,1.8,2470.31,13.33,0.005,323.1
2020-05-17T09:52:03,42.805,6.029,0.011,0.001,-0.04,103.0,105.0,101.0,13.4,1505.3,323.5,-0.7,1.8,2470.241,13.33,0.011,84.8
2020-05-17T09:55:03,42.805,6.029,-0.009,0.022,-0.027,102.0,105.0,100.0,13.3,1505.3,327.8,-0.7,1.8,2470.251,13.33,0.023,337.8
2020-05-17T09:58:03,42.805,6.029,0.006,0.014,-0.041,101.0,104.0,102.0,13.4,1505.3,326.5,-0.7,1.8,2470.267,13.33,0.015,23.2
2020-05-17T10:04:02,42.805,6.029,0.017,-0.004,-0.056,102.0,105.0,100.0,13.3,1505.3,325.2,-0.7,1.8,2470.294,13.31,0.017,103.2
2020-05-17T10:07:03,42.805,6.029,-0.022,-0.001,-0.062,101.0,105.0,100.0,13.3,1505.3,325.5,-0.7,1.8,2470.252,13.32,0.022,267.4
2020-05-17T10:10:03,42.805,6.029,-0.001,0.004,-0.036,103.0,105.0,102.0,13.4,1505.3,328.1,-0.7,1.8,2470.252,13.33,0.004,346.0